Hourly Data Report for October 01, 2001

SHERBROOKE A
QUEBEC

45°26'00.000" N
71°41'00.000" W
241.40 m
7028124
71610
YSC

Download Data

Hourly Data (October 2001)
Hourly Data Report for October 1, 2001
TIME
LST
Temp Definition
°C
Dew Point Definition
°C
Rel Hum Definition
%
Precip. Amount Definition
mm

Wind Dir Definition
10's deg

Wind Spd Definition
km/h
Visibility Definition
km
Stn Press Definition
kPa
Hmdx Definition


Wind Chill Definition


Weather Definition


00:00 -0.5 -1.0 96   35 4 15.0 98.94   -2  
01:00 -0.7 -1.5 94   3 6 15.0 98.84   -3  
02:00 -0.8 -1.5 95   9 6 15.0 98.79   -3  
03:00 -1.5 -2.2 95   11 4 15.0 98.76   -3  
04:00 -2.1 -3.2 92   9 4 15.0 98.67   -4  
05:00 -1.5 -2.3 94   13 6 15.0 98.60   -4  
06:00 -2.0 -3.0 93     0 15.0 98.62      
07:00 1.7 0.8 94   13 6 24.1 98.59     Mainly Clear
08:00 5.7 2.7 81     0 24.1 98.56     Mainly Clear
09:00 9.6 3.9 68   20 4 24.1 98.49     Clear
10:00 13.8 4.1 52   19 4 24.1 98.44     Clear
11:00 15.8 5.1 49   26 9 24.1 98.32     Mainly Clear
12:00 17.5 5.8 46   35 7 24.1 98.21     Mainly Clear
13:00 18.8 6.8 46   25 7 24.1 98.11     Mainly Clear
14:00 19.5 7.4 45   25 9 24.1 98.05     Mainly Clear
15:00 19.8 7.0 43   27 11 24.1 98.00     Clear
16:00 18.8 6.2 44   30 13 24.1 97.96     Clear
17:00 16.9 7.5 54   28 6 15.0 97.96      
18:00 11.1 7.2 77   27 4 15.0 97.98      
19:00 8.4 6.4 87     0 15.0 98.01      
20:00 7.6 6.5 93   11 6 15.0 98.01      
21:00 6.3 5.6 95     0 15.0 97.99      
22:00 5.1 4.4 95   10 4 12.9 97.96      
23:00 4.5 3.8 95   7 4 15.0 97.94      

Notes on Data Quality.

Legend

  • E = Estimated
  • M = Missing
  • NA = Not Available*
  • [empty] = Indicates an unobserved value
Date modified: